Home > Weather > Amstetten > Past weeks

Flag for Austria Weather for the Past 2 Weeks in Amstetten, Lower Austria, Austria

Now
49 °F

Clear.


Feels Like: 48 °F
Forecast: 46 / 70 °F
Wind: 3 mph from East

Location: Linz / Hoersching-Flughafen

Current Time: May 5, 2016 at 11:01:19 PM

Latest Report: May 5, 2016 at 10:00 PM


Visibility: 10 mi

Pressure: 30.22 "Hg

Humidity: 86%

Dew Point: 45 °F

Location of AmstettenLocation

Historic Weather in Amstetten — Graph

°F

Amstetten Temperature Yesterday

Maximum temperature yesterday: 51 °F (at 2:00 AM)
Minimum temperature yesterday: 46 °F (at 9:00 AM)
Average temperature yesterday: 47 °F

High & Low Weather Summary for the Past Weeks

 TemperatureHumidityPressure
High67 °F (Apr 22, 6:00 PM)97% (Apr 29, 4:00 AM)30.39 "Hg (Apr 29, 4:00 AM)
Low30 °F (Apr 29, 6:00 AM)23% (Apr 30, 6:00 PM)29.61 "Hg (Apr 23, 7:00 PM)
Average49 °F69%30.02 "Hg
* Reported Apr 20 10:00 PM — May 5 10:00 PM, Amstetten, Weather by CustomWeather, © 2016

Note: Actual official high and low records may vary slightly from our data, if they occured in-between our weather recording intervals... More about our weather records

Advertising

Amstetten Weather History for the Previous 24 Hours

Scroll right to see more
 ConditionsComfort  
Time TempWeatherWind HumidityBarometerVisibility
10:00 PM
Thu, May 5
49 °FClear.3 mph86%30.22 "Hg10 mi
9:00 PM52 °FClear.N/A79%30.22 "Hg14 mi
8:00 PM55 °FSunny.N/A72%30.21 "Hg19 mi
7:00 PM57 °FPassing clouds.5 mph70%30.22 "Hg17 mi
6:00 PM57 °FPassing clouds.5 mph67%30.23 "Hg14 mi
5:00 PM57 °FScattered clouds.6 mph67%30.25 "Hg17 mi
4:00 PM57 °FScattered clouds.6 mph67%30.26 "Hg16 mi
3:00 PM57 °FPartly sunny.5 mph67%30.28 "Hg16 mi
2:00 PM55 °FOvercast.N/A72%30.30 "Hg9 mi
1:00 PM52 °FOvercast.N/A77%30.32 "Hg22 mi
12:00 PM50 °FOvercast.N/A79%30.34 "Hg9 mi
11:00 AM48 °FOvercast.N/A82%30.35 "Hg9 mi
10:00 AM47 °FOvercast.N/A84%30.35 "Hg16 mi
9:00 AMN/APassing clouds.3 mphN/AN/A2 mi
8:00 AM45 °FOvercast.N/A93%30.35 "Hg9 mi
7:00 AM44 °FOvercast.N/A93%30.34 "Hg10 mi
6:00 AM44 °FOvercast.N/A93%30.35 "Hg10 mi
5:00 AM44 °FOvercast.N/A93%30.35 "Hg7 mi
4:00 AM44 °FOvercast.N/A93%30.35 "Hg17 mi
3:00 AM44 °FOvercast.N/A96%30.35 "Hg8 mi
2:00 AM44 °FOvercast.N/A92%30.36 "Hg31 mi
1:00 AM44 °FOvercast.N/A93%30.37 "Hg28 mi
12:00 AM45 °FRain showers. Overcast.N/A93%30.38 "Hg19 mi
11:00 PM
Wed, May 4
46 °FLight rain. Overcast.N/A95%30.37 "Hg6 mi
Weather by CustomWeather, © 2016

See weather overviewHow to use our weather pages